Flag for Mauritania Weather past 2 weeks in Nouakchott, Mauritania

Now
72 °F

Clear.


Feels Like: 72 °F
Forecast: N/A
Wind: 9 mph from North

Location: Nouakchott Airport

Current Time: May 28, 2015 at 11:24:57 PM

Latest Report: May 28, 2015 at 10:30 PM


Visibility: 5 mi

Pressure: 29.89 "Hg

Humidity: 78%

Dew point: 64 °F

Location of NouakchottLocation

Historic Weather in Nouakchott — Graph

°F

Nouakchott temperature yesterday

Maximum temperature yesterday: 86 °F (at 11:30 AM)
Minimum temperature yesterday: 66 °F (at 6:00 AM)
Average temperature yesterday: 74 °F

Past Weeks' High & Low Weather Summary

 TemperatureHumidityPressure
High102 °F (May 21, 2:30 PM)94% (May 18, 5:00 AM)30.01 "Hg (May 18, 5:00 AM)
Low66 °F (May 27, 6:00 AM)10% (May 21, 2:00 PM)29.74 "Hg (May 15, 3:30 PM)
Average78 °F61%29.87 "Hg
* Reported May 13 9:00 PM — May 28 9:30 PM, Nouakchott, Weather by CustomWeather, © 2015

Note: Actual official high and low records may vary slightly from our data, if they occured in-between our weather recording intervals... More about our weather records

Advertising

Nouakchott weather history for previous 24 hours

 ConditionsComfort  
Time TempWeatherWind HumidityBarometerVisibility
9:30 PM
Thu, May 28
72 °FClear.13 mph78%29.86 "Hg5 mi
9:00 PM72 °FClear.10 mph73%29.86 "Hg5 mi
8:30 PM73 °FClear.13 mph69%29.86 "Hg5 mi
8:00 PM73 °FClear.15 mph69%29.83 "Hg5 mi
7:30 PM75 °FClear.15 mph65%29.83 "Hg5 mi
7:00 PM77 °FClear.15 mph61%29.83 "Hg5 mi
6:30 PM79 °FClear.14 mph58%29.80 "Hg5 mi
6:00 PM81 °FClear.12 mph54%29.80 "Hg5 mi
5:30 PM82 °FClear.14 mph51%29.80 "Hg5 mi
5:00 PM82 °FClear.16 mph48%29.80 "Hg5 mi
4:30 PM84 °FClear.14 mph48%29.80 "Hg5 mi
4:00 PM84 °FClear.16 mph45%29.80 "Hg5 mi
3:30 PM86 °FClear.15 mph40%29.83 "Hg5 mi
3:00 PM86 °FClear.14 mph40%29.83 "Hg5 mi
2:30 PM86 °FClear.14 mph38%29.83 "Hg5 mi
2:00 PM86 °FClear.13 mph38%29.86 "Hg5 mi
1:30 PM88 °FClear.12 mph35%29.86 "Hg5 mi
1:00 PM86 °FClear.13 mph40%29.86 "Hg5 mi
12:30 PM86 °FClear.10 mph40%29.89 "Hg5 mi
12:00 PM84 °FClear.10 mph45%29.89 "Hg5 mi
11:30 AM88 °FClear.12 mph29%29.89 "Hg5 mi
11:00 AM86 °FClear.12 mph31%29.89 "Hg5 mi
10:30 AM82 °FClear.10 mph37%29.89 "Hg5 mi
10:00 AM79 °FClear.12 mph45%29.89 "Hg5 mi
9:30 AM77 °FClear.12 mph47%29.89 "Hg5 mi
9:00 AM75 °FClear.14 mph54%29.89 "Hg5 mi
8:30 AM72 °FClear.12 mph61%29.89 "Hg5 mi
8:00 AM70 °FClear.8 mph64%29.89 "Hg5 mi
7:30 AM68 °FClear.8 mph73%29.89 "Hg5 mi
7:00 AM68 °FClear.8 mph73%29.89 "Hg5 mi
6:30 AM68 °FClear.9 mph73%29.89 "Hg5 mi
6:00 AM68 °FClear.10 mph73%29.86 "Hg5 mi
5:30 AM68 °FClear.10 mph78%29.86 "Hg5 mi
5:00 AM70 °FClear.12 mph73%29.86 "Hg5 mi
4:30 AM70 °FClear.12 mph73%29.86 "Hg5 mi
4:00 AM68 °FClear.8 mph83%29.86 "Hg5 mi
3:30 AM68 °FClear.9 mph88%29.86 "Hg5 mi
2:30 AM68 °FClear.9 mph88%29.86 "Hg5 mi
2:00 AM68 °FClear.12 mph88%29.86 "Hg5 mi
1:30 AM68 °FClear.13 mph83%29.89 "Hg5 mi
1:00 AM68 °FClear.13 mph83%29.89 "Hg5 mi
12:30 AM68 °FClear.12 mph83%29.89 "Hg5 mi
12:00 AM68 °FClear.10 mph88%29.92 "Hg5 mi
11:30 PM
Wed, May 27
68 °FClear.13 mph83%29.92 "Hg5 mi
11:00 PM68 °FClear.13 mph83%29.92 "Hg5 mi
Weather by CustomWeather, © 2015

See weather overviewHow to use our weather pages